period_start,C,m1,H,J0,J1,J2,J3,J4,J5,JA,JB,JC,JD,JJ,JK,JN,#
2017-06-09 00:03:33,0.00,0.05,0.00,24.95,29.11,31.81,13.85,45.71,1016.62,2024.00,3457.00,3074.00,3530.74,600.09,592.23,10.21,0000 0000 0000 0000 000000
2017-06-09 00:08:34,0.01,0.05,0.00,24.96,29.12,31.84,13.82,45.67,1016.62,2024.00,3456.99,3073.94,3530.25,600.09,592.20,10.26,0000 0000 0000 0000 000000
2017-06-09 00:13:36,0.00,0.05,0.00,24.95,29.15,31.88,13.80,45.73,1016.62,2023.99,3456.98,3073.85,3530.02,599.68,591.81,10.31,0000 0000 0000 0000 000000
2017-06-09 00:18:37,0.06,0.06,0.00,24.97,29.15,31.89,13.81,45.74,1016.62,2023.99,3456.07,3073.19,3529.60,599.85,591.96,10.36,0000 0000 0000 0000 000000
2017-06-09 00:23:38,0.02,0.06,0.00,24.97,29.16,31.89,13.81,45.82,1016.62,2023.99,3455.00,3072.46,3529.01,600.09,592.24,10.41,0000 0000 0000 0000 000000
2017-06-09 00:28:40,0.01,0.06,0.00,24.99,29.17,31.89,13.87,45.83,1016.62,2023.98,3454.58,3072.07,3528.96,600.03,592.16,10.46,0000 0000 0000 0000 000000
2017-06-09 00:33:41,0.00,0.06,0.00,25.00,29.17,31.92,13.94,45.77,1016.57,2023.97,3454.25,3072.02,3528.88,600.26,592.21,10.51,0000 0000 0000 0000 000000
2017-06-09 00:38:42,0.00,0.06,0.00,25.02,29.17,31.89,13.79,45.77,1016.55,2023.98,3454.08,3072.00,3528.90,600.02,591.93,10.56,0000 0000 0000 0000 000000
2017-06-09 00:43:43,0.00,0.06,0.00,25.04,29.17,31.88,13.77,45.74,1016.49,2023.99,3454.05,3072.01,3528.92,599.91,591.75,10.61,0000 0000 0000 0000 000000
2017-06-09 00:48:44,0.01,0.06,0.00,25.06,29.17,31.86,13.84,45.74,1016.54,2023.98,3454.01,3072.01,3528.62,599.98,591.83,10.66,0000 0000 0000 0000 000000
2017-06-09 00:53:46,0.00,0.06,0.00,25.07,29.16,31.86,13.87,45.73,1016.60,2023.97,3454.00,3072.00,3528.14,600.31,592.15,10.71,0000 0000 0000 0000 000000
2017-06-09 00:58:47,-0.00,0.06,0.00,25.10,29.15,31.83,13.82,45.79,1016.61,2023.96,3453.99,3072.00,3528.11,600.21,592.05,10.76,0000 0000 0000 0000 000000
2017-06-09 01:03:49,0.00,0.06,0.00,25.12,29.15,31.84,13.87,45.81,1016.61,2023.95,3453.99,3072.00,3528.03,600.09,591.77,10.81,0000 0000 0000 0000 000000
2017-06-09 01:08:50,0.00,0.06,0.00,25.13,29.15,31.85,13.75,45.73,1016.62,2023.94,3453.98,3072.00,3528.01,600.02,591.77,10.86,0000 0000 0000 0000 000000
2017-06-09 01:13:51,0.00,0.06,0.00,25.15,29.15,31.82,13.80,45.67,1016.62,2023.96,3453.99,3072.00,3528.01,599.89,591.58,10.91,0000 0000 0000 0000 000000
2017-06-09 01:18:53,0.00,0.06,0.00,25.17,29.15,31.80,13.84,45.62,1016.62,2023.97,3453.95,3071.99,3528.00,600.32,592.12,10.96,0000 0000 0000 0000 000000
2017-06-09 01:23:54,0.00,0.06,0.00,25.18,29.15,31.79,13.85,45.66,1016.62,2023.97,3453.96,3071.99,3528.00,599.90,591.65,11.01,0000 0000 0000 0000 000000
2017-06-09 01:28:56,0.00,0.06,0.00,25.21,29.15,31.78,13.85,45.55,1016.62,2023.96,3453.92,3071.97,3528.00,600.08,591.71,11.06,0000 0000 0000 0000 000000
2017-06-09 01:33:57,-0.00,0.06,0.00,25.22,29.15,31.78,13.82,45.64,1016.62,2023.96,3453.90,3071.98,3528.00,599.70,591.26,11.12,0000 0000 0000 0000 000000
2017-06-09 01:38:59,0.00,0.06,0.00,25.24,29.15,31.79,13.79,45.59,1016.62,2023.97,3453.77,3071.97,3528.00,599.92,591.38,11.17,0000 0000 0000 0000 000000
2017-06-09 01:44:00,0.00,0.06,0.00,25.26,29.15,31.78,13.83,45.61,1016.62,2023.96,3453.69,3071.97,3527.99,600.08,591.63,11.22,0000 0000 0000 0000 000000
2017-06-09 01:49:01,-0.00,0.06,0.00,25.27,29.15,31.80,13.79,45.60,1016.62,2023.95,3453.57,3071.96,3527.99,599.54,591.08,11.27,0000 0000 0000 0000 000000
2017-06-09 01:54:02,0.00,0.06,0.00,25.28,29.15,31.80,13.82,45.56,1016.62,2023.98,3453.47,3071.97,3527.99,600.02,591.51,11.32,0000 0000 0000 0000 000000
2017-06-09 01:59:04,-0.00,0.06,0.00,25.31,29.15,31.80,13.79,45.67,1016.62,2023.99,3453.34,3071.96,3527.99,600.06,591.56,11.37,0000 0000 0000 0000 000000
2017-06-09 02:04:05,0.00,0.06,0.00,25.34,29.15,31.79,13.75,45.64,1016.62,2023.96,3453.07,3071.83,3527.98,600.08,591.43,11.42,0000 0000 0000 0000 000000
2017-06-09 02:09:06,0.00,0.06,0.00,25.35,29.17,31.78,13.77,45.79,1016.62,2023.97,3453.07,3071.81,3527.98,600.00,591.29,11.47,0000 0000 0000 0000 000000
2017-06-09 02:14:08,0.01,0.06,0.00,25.37,29.17,31.77,13.80,45.74,1016.62,2023.98,3453.05,3071.73,3527.98,599.86,591.01,11.52,0000 0000 0000 0000 000000
2017-06-09 02:19:09,0.00,0.06,0.00,25.39,29.17,31.79,13.80,45.63,1016.62,2023.96,3453.01,3071.46,3527.94,599.92,591.22,11.57,0000 0000 0000 0000 000000
2017-06-09 02:24:10,0.00,0.06,0.00,25.41,29.17,31.78,13.80,45.77,1016.50,2023.88,3453.00,3071.11,3527.63,599.89,591.05,11.62,0000 0000 0000 0000 000000
2017-06-09 02:29:12,0.01,0.06,0.00,25.44,29.18,31.79,13.75,45.67,1016.19,2023.83,3453.00,3071.04,3527.22,600.01,590.98,11.67,0000 0000 0000 0000 000000
2017-06-09 02:34:13,-0.02,0.06,0.00,25.46,29.19,31.80,13.84,45.83,1016.14,2023.64,3452.98,3071.02,3527.06,600.18,591.01,11.72,0000 0000 0000 0000 000000
2017-06-09 02:39:14,-0.01,0.06,0.00,25.49,29.20,31.80,13.78,45.80,1016.15,2023.57,3452.90,3071.00,3527.01,599.89,590.74,11.77,0000 0000 0000 0000 000000
2017-06-09 02:44:15,-0.00,0.06,0.00,25.50,29.20,31.80,13.75,45.72,1016.17,2023.37,3452.36,3071.00,3527.00,600.18,590.96,11.82,0000 0000 0000 0000 000000
2017-06-09 02:49:17,-0.00,0.06,0.00,25.52,29.20,31.82,13.81,45.67,1016.15,2023.27,3452.33,3071.00,3527.00,599.92,590.65,11.87,0000 0000 0000 0000 000000
2017-06-09 02:54:18,-0.01,0.06,0.00,25.53,29.21,31.82,13.76,45.64,1016.19,2023.17,3452.25,3071.00,3527.00,599.97,590.78,11.92,0000 0000 0000 0000 000000
2017-06-09 02:59:19,0.00,0.06,0.00,25.55,29.22,31.83,13.78,45.63,1016.37,2023.21,3452.11,3071.00,3527.00,599.86,590.66,11.97,0000 0000 0000 0000 000000
2017-06-09 03:04:20,-0.01,0.06,0.00,25.58,29.22,31.81,13.77,45.73,1016.50,2023.05,3452.01,3070.99,3526.98,599.90,590.71,12.02,0000 0000 0000 0000 000000
2017-06-09 03:09:22,0.00,0.06,0.00,25.61,29.22,31.83,13.75,45.69,1016.59,2023.03,3452.00,3070.99,3526.91,599.71,590.61,12.07,0000 0000 0000 0000 000000
2017-06-09 03:14:23,0.00,0.06,0.00,25.63,29.23,31.86,13.78,45.62,1016.59,2023.02,3452.00,3070.96,3526.71,600.14,590.87,12.12,0000 0000 0000 0000 000000
2017-06-09 03:19:24,0.01,0.06,0.00,25.65,29.25,31.85,13.79,45.52,1016.54,2023.01,3452.00,3070.87,3526.27,599.98,590.83,12.17,0000 0000 0000 0000 000000
2017-06-09 03:24:25,-0.00,0.06,0.00,25.67,29.25,31.86,13.78,45.64,1016.42,2023.03,3452.00,3070.91,3526.48,599.94,590.54,12.22,0000 0000 0000 0000 000000
2017-06-09 03:29:27,0.00,0.06,0.00,25.70,29.26,31.86,13.69,45.58,1016.56,2023.02,3452.00,3070.85,3526.22,600.11,590.78,12.27,0000 0000 0000 0000 000000
2017-06-09 03:34:28,0.01,0.06,0.00,25.72,29.27,31.87,13.80,45.52,1016.46,2023.00,3451.97,3070.47,3526.05,600.24,590.69,12.32,0000 0000 0000 0000 000000
2017-06-09 03:39:30,0.01,0.06,0.00,25.74,29.28,31.88,13.78,45.50,1016.47,2023.00,3451.75,3070.08,3526.00,600.37,590.86,12.37,0000 0000 0000 0000 000000
2017-06-09 03:44:31,0.00,0.06,0.00,25.75,29.30,31.90,13.77,45.61,1016.57,2023.00,3451.55,3070.04,3526.00,600.18,590.77,12.42,0000 0000 0000 0000 000000
2017-06-09 03:49:32,0.00,0.06,0.00,25.74,29.31,31.89,13.76,45.54,1016.42,2023.00,3451.25,3070.01,3525.99,600.02,590.41,12.47,0000 0000 0000 0000 000000
2017-06-09 03:54:33,0.00,0.06,0.00,25.66,29.32,31.91,13.77,45.54,1016.43,2023.00,3451.04,3070.00,3525.96,600.02,590.65,12.52,0000 0000 0000 0000 000000
2017-06-09 03:59:34,0.00,0.06,0.00,25.54,29.32,31.94,13.80,45.38,1016.28,2022.98,3451.00,3070.00,3525.89,600.05,590.65,12.57,0000 0000 0000 0000 000000
2017-06-09 04:04:35,0.00,0.06,0.00,25.49,29.32,31.96,13.70,45.38,1016.18,2022.99,3451.00,3070.00,3525.80,599.68,590.56,12.62,0000 0000 0000 0000 000000
2017-06-09 04:09:37,0.00,0.06,0.00,25.43,29.32,31.97,13.85,45.54,1016.14,2022.99,3451.00,3070.00,3525.64,600.18,591.22,12.67,0000 0000 0000 0000 000000
2017-06-09 04:14:39,0.00,0.06,0.00,25.40,29.32,31.96,13.91,45.55,1016.15,2022.99,3450.99,3069.99,3525.28,600.60,591.56,12.72,0000 0000 0000 0000 000000
2017-06-09 04:19:40,0.00,0.06,0.00,25.37,29.30,31.95,13.81,45.52,1016.14,2022.99,3450.98,3069.98,3525.31,600.13,591.09,12.77,0000 0000 0000 0000 000000
2017-06-09 04:24:41,-0.00,0.06,0.00,25.35,29.29,31.92,13.89,45.67,1016.14,2022.99,3450.99,3069.99,3525.47,600.15,591.16,12.82,0000 0000 0000 0000 000000
2017-06-09 04:29:43,-0.00,0.06,0.00,25.35,29.27,31.90,13.78,45.44,1016.13,2022.99,3450.98,3069.99,3525.76,599.94,591.01,12.87,0000 0000 0000 0000 000000
2017-06-09 04:34:44,-0.00,0.06,0.00,25.31,29.25,31.87,13.79,45.53,1016.13,2022.99,3450.99,3069.99,3525.96,600.18,591.34,12.92,0000 0000 0000 0000 000000
2017-06-09 04:39:45,0.00,0.06,0.00,25.32,29.23,31.83,13.80,45.53,1016.13,2023.00,3450.99,3069.99,3525.97,599.97,591.05,12.97,0000 0000 0000 0000 000000
2017-06-09 04:44:46,0.00,0.06,0.00,25.33,29.21,31.78,13.84,45.48,1016.13,2023.01,3450.99,3070.01,3525.98,599.98,591.00,13.02,0000 0000 0000 0000 000000
2017-06-09 04:49:47,-0.00,0.06,0.00,25.35,29.20,31.74,13.75,45.49,1016.13,2023.02,3450.99,3070.03,3525.99,599.84,591.01,13.07,0000 0000 0000 0000 000000
2017-06-09 04:54:49,0.00,0.06,0.00,25.36,29.17,31.72,13.81,45.50,1016.13,2023.04,3450.99,3070.01,3525.98,600.11,591.14,13.12,0000 0000 0000 0000 000000
2017-06-09 04:59:50,0.00,0.06,0.00,25.37,29.15,31.68,13.76,45.63,1016.09,2023.10,3450.99,3070.06,3525.98,599.95,591.02,13.17,0000 0000 0000 0000 000000
2017-06-09 05:04:51,0.03,0.06,0.00,25.37,29.13,31.65,13.76,45.65,1016.11,2023.32,3450.98,3070.06,3525.99,599.93,590.94,13.22,0000 0000 0000 0000 000000
2017-06-09 05:09:53,0.00,0.06,0.00,25.39,29.12,31.61,13.78,45.33,1016.06,2023.37,3450.97,3070.06,3525.99,600.17,591.22,13.27,0000 0000 0000 0000 000000
2017-06-09 05:14:54,0.03,0.07,0.00,25.40,29.10,31.59,13.81,45.58,1016.02,2023.85,3450.99,3070.36,3525.99,599.89,590.78,13.32,0000 0000 0000 0000 000000
2017-06-09 05:19:55,-0.00,0.07,0.00,25.41,29.08,31.57,13.77,45.55,1016.11,2023.97,3450.99,3070.76,3526.02,600.06,590.94,13.38,0000 0000 0000 0000 000000
2017-06-09 05:24:56,0.00,0.07,0.00,25.45,29.07,31.57,13.81,45.52,1016.10,2023.97,3450.99,3070.89,3526.03,599.89,590.74,13.43,0000 0000 0000 0000 000000
2017-06-09 05:29:58,0.00,0.07,0.00,25.47,29.06,31.55,13.80,45.59,1016.03,2023.98,3450.99,3070.92,3526.03,600.38,591.18,13.48,0000 0000 0000 0000 000000
2017-06-09 05:34:59,-0.00,0.07,0.00,25.49,29.05,31.53,13.77,45.52,1015.98,2023.99,3450.99,3070.95,3526.17,599.88,590.66,13.53,0000 0000 0000 0000 000000
2017-06-09 05:40:00,-0.00,0.07,0.00,25.52,29.05,31.52,13.76,45.53,1015.93,2023.99,3450.99,3070.98,3526.20,599.90,590.55,13.58,0000 0000 0000 0000 000000
2017-06-09 05:45:01,-0.00,0.07,0.00,25.53,29.05,31.51,13.74,45.49,1015.91,2023.99,3450.99,3070.96,3526.23,599.92,590.49,13.63,0000 0000 0000 0000 000000
2017-06-09 05:50:03,0.00,0.07,0.00,25.57,29.04,31.51,13.79,45.50,1016.10,2023.99,3450.99,3070.94,3526.13,599.88,590.52,13.68,0000 0000 0000 0000 000000
2017-06-09 05:55:04,0.00,0.07,0.00,25.60,29.03,31.50,13.68,45.42,1016.13,2023.99,3450.99,3070.94,3526.08,599.90,590.49,13.73,0000 0000 0000 0000 000000
2017-06-09 06:00:05,0.00,0.07,0.00,25.64,29.03,31.50,13.71,45.56,1016.03,2024.00,3450.98,3070.95,3526.08,599.92,590.39,13.78,0000 0000 0000 0000 000000
2017-06-09 06:05:07,0.00,0.07,0.00,25.68,29.04,31.50,13.77,45.51,1015.79,2024.00,3450.97,3070.87,3526.02,600.02,590.28,13.83,0000 0000 0000 0000 000000
2017-06-09 06:10:08,0.00,0.07,0.00,25.70,29.04,31.50,13.80,45.68,1015.65,2024.00,3450.91,3070.69,3526.01,600.01,590.10,13.88,0000 0000 0000 0000 000000
2017-06-09 06:15:09,0.00,0.07,0.00,25.74,29.05,31.49,13.72,45.58,1015.68,2024.00,3450.88,3070.58,3526.01,600.02,589.97,13.93,0000 0000 0000 0000 000000
2017-06-09 06:20:11,-0.01,0.07,0.00,25.77,29.05,31.50,13.76,45.55,1015.65,2024.00,3450.90,3070.73,3526.01,600.25,590.12,13.98,0000 0000 0000 0000 000000
2017-06-09 06:25:12,-0.00,0.07,0.00,25.81,29.05,31.51,13.77,45.45,1015.64,2024.00,3450.86,3070.74,3526.00,600.21,590.13,14.03,0000 0000 0000 0000 000000
2017-06-09 06:30:13,0.00,0.07,0.00,25.84,29.05,31.51,13.71,45.28,1015.65,2024.00,3450.55,3070.54,3526.00,599.95,589.80,14.08,0000 0000 0000 0000 000000
2017-06-09 06:35:14,0.02,0.07,0.00,25.87,29.07,31.51,13.65,45.22,1015.69,2024.00,3450.13,3070.17,3526.00,599.90,589.86,14.13,0000 0000 0000 0000 000000
2017-06-09 06:40:16,0.00,0.07,0.00,25.93,29.07,31.53,13.71,45.34,1015.70,2024.00,3450.01,3070.06,3525.99,599.87,589.58,14.18,0000 0000 0000 0000 000000
2017-06-09 06:45:17,0.00,0.07,0.00,25.96,29.08,31.53,13.79,45.35,1015.76,2024.00,3450.01,3070.02,3525.98,600.02,589.68,14.23,0000 0000 0000 0000 000000
2017-06-09 06:50:19,0.00,0.07,0.00,26.00,29.10,31.55,13.72,45.28,1015.86,2024.00,3450.00,3070.00,3525.87,599.95,589.47,14.28,0000 0000 0000 0000 000000
2017-06-09 06:55:20,0.00,0.07,0.00,26.05,29.11,31.56,13.74,45.38,1015.97,2024.00,3449.99,3070.00,3525.55,599.99,589.43,14.33,0000 0000 0000 0000 000000
2017-06-09 07:00:21,0.00,0.07,0.00,26.09,29.12,31.58,13.69,45.21,1016.06,2024.00,3449.93,3070.00,3525.24,600.05,589.64,14.38,0000 0000 0000 0000 000000
2017-06-09 07:05:23,0.01,0.07,0.00,26.11,29.15,31.60,13.72,45.25,1016.08,2023.99,3449.43,3069.96,3525.02,599.84,589.39,14.43,0000 0000 0000 0000 000000
2017-06-09 07:10:24,0.00,0.07,0.00,26.16,29.16,31.62,13.65,45.22,1015.84,2023.98,3449.12,3069.89,3525.00,600.06,589.55,14.48,0000 0000 0000 0000 000000
2017-06-09 07:15:25,0.01,0.07,0.00,26.19,29.18,31.64,13.70,45.15,1015.99,2023.98,3449.01,3069.37,3524.99,599.80,589.13,14.53,0000 0000 0000 0000 000000
2017-06-09 07:20:27,0.00,0.07,0.00,26.21,29.20,31.67,13.74,45.28,1015.83,2023.93,3449.00,3069.08,3524.96,600.02,589.19,14.58,0000 0000 0000 0000 000000
2017-06-09 07:25:28,-0.03,0.07,0.00,26.22,29.22,31.69,13.67,45.24,1015.86,2023.60,3448.98,3069.00,3524.54,600.05,589.04,14.63,0000 0000 0000 0000 000000
2017-06-09 07:30:29,-0.02,0.07,0.00,26.24,29.23,31.71,13.70,45.17,1015.66,2023.20,3448.93,3069.00,3524.09,599.97,588.98,14.68,0000 0000 0000 0000 000000
2017-06-09 07:35:30,0.00,0.07,0.00,26.24,29.25,31.74,13.69,45.21,1015.66,2023.09,3448.42,3068.99,3524.02,599.83,588.95,14.73,0000 0000 0000 0000 000000
2017-06-09 07:40:32,-0.00,0.07,0.00,26.23,29.27,31.75,13.66,45.15,1015.70,2023.03,3448.05,3068.96,3524.00,599.72,588.83,14.78,0000 0000 0000 0000 000000
2017-06-09 07:45:33,0.00,0.07,0.00,26.29,29.29,31.77,13.74,45.30,1016.07,2023.02,3448.01,3068.85,3524.00,600.07,589.24,14.83,0000 0000 0000 0000 000000
2017-06-09 07:50:34,0.01,0.07,0.00,26.32,29.31,31.80,13.71,45.07,1016.12,2023.01,3448.00,3068.43,3523.95,600.01,589.23,14.88,0000 0000 0000 0000 000000
2017-06-09 07:55:35,0.01,0.07,0.00,26.32,29.33,31.81,13.70,45.15,1016.13,2023.00,3447.99,3068.04,3523.52,599.79,589.01,14.93,0000 0000 0000 0000 000000
2017-06-09 08:00:36,0.06,0.07,0.00,26.35,29.35,31.84,13.71,45.14,1016.13,2023.00,3446.67,3067.55,3522.65,600.25,589.33,14.98,0000 0000 0000 0000 000000
2017-06-09 08:05:37,0.08,0.08,0.00,26.38,29.37,31.87,13.64,45.09,1016.13,2023.00,3444.31,3066.30,3521.29,599.61,588.71,15.03,0000 0000 0000 0000 000000
2017-06-09 08:10:39,0.05,0.08,0.00,26.42,29.40,31.89,13.72,45.28,1016.13,2022.98,3442.95,3065.29,3520.20,600.18,589.16,15.08,0000 0000 0000 0000 000000
2017-06-09 08:15:39,-0.00,0.08,0.00,26.47,29.43,31.91,13.66,45.26,1016.13,2022.80,3442.07,3064.99,3519.89,600.01,588.85,15.13,0000 0000 0000 0000 000000
2017-06-09 08:20:40,-0.02,0.08,0.00,26.48,29.46,31.93,13.65,45.26,1016.13,2022.38,3442.00,3064.85,3519.32,600.04,588.86,15.18,0000 0000 0000 0000 000000
2017-06-09 08:25:42,0.01,0.08,0.00,26.48,29.49,31.96,13.66,45.28,1016.14,2022.11,3441.93,3064.22,3519.03,599.98,588.81,15.23,0000 0000 0000 0000 000000
2017-06-09 08:30:43,0.00,0.08,0.00,26.48,29.51,31.98,13.66,45.19,1016.14,2022.02,3441.40,3064.04,3519.00,599.89,588.68,15.28,0000 0000 0000 0000 000000
2017-06-09 08:35:44,0.00,0.08,0.00,26.49,29.54,32.01,13.73,45.20,1016.14,2022.00,3441.04,3064.00,3518.99,600.15,588.81,15.33,0000 0000 0000 0000 000000
2017-06-09 08:40:45,0.00,0.08,0.00,26.50,29.56,32.03,13.72,45.25,1016.17,2022.00,3441.00,3063.99,3518.81,600.03,588.80,15.38,0000 0000 0000 0000 000000
2017-06-09 08:45:46,0.01,0.08,0.00,26.50,29.59,32.05,13.73,45.26,1016.18,2022.00,3440.97,3063.95,3518.23,600.29,589.12,15.43,0000 0000 0000 0000 000000
2017-06-09 08:50:48,0.02,0.08,0.00,26.47,29.61,32.08,13.74,45.16,1016.35,2021.98,3440.53,3063.57,3518.00,600.14,589.04,15.48,0000 0000 0000 0000 000000
2017-06-09 08:55:49,0.01,0.08,0.00,26.47,29.62,32.10,13.71,45.18,1016.18,2021.98,3440.03,3063.08,3518.00,600.37,589.12,15.53,0000 0000 0000 0000 000000
2017-06-09 09:00:50,-0.00,0.08,0.00,26.48,29.65,32.13,13.62,45.17,1016.26,2021.95,3440.00,3063.00,3517.96,599.99,589.05,15.58,0000 0000 0000 0000 000000
2017-06-09 09:05:51,-0.01,0.08,0.00,26.47,29.66,32.15,13.73,45.26,1016.35,2021.72,3439.97,3062.99,3517.48,600.09,589.06,15.64,0000 0000 0000 0000 000000
2017-06-09 09:10:52,-0.02,0.08,0.00,26.45,29.68,32.17,13.67,45.24,1016.28,2021.25,3439.57,3062.93,3517.03,599.95,588.92,15.69,0000 0000 0000 0000 000000
2017-06-09 09:15:54,0.01,0.08,0.00,26.43,29.70,32.19,13.63,45.13,1016.21,2021.10,3439.11,3062.60,3517.00,599.65,588.75,15.74,0000 0000 0000 0000 000000
2017-06-09 09:20:55,0.00,0.08,0.00,26.44,29.72,32.22,13.65,45.17,1016.20,2021.05,3439.00,3062.11,3516.99,599.90,588.85,15.79,0000 0000 0000 0000 000000
2017-06-09 09:25:56,-0.00,0.08,0.00,26.43,29.73,32.23,13.68,45.23,1016.23,2021.01,3439.00,3062.03,3516.93,599.79,588.76,15.84,0000 0000 0000 0000 000000
2017-06-09 09:30:58,0.00,0.08,0.00,26.43,29.75,32.24,13.71,45.17,1016.21,2021.00,3438.95,3062.00,3516.69,600.03,589.19,15.89,0000 0000 0000 0000 000000
2017-06-09 09:35:59,0.01,0.08,0.00,26.42,29.76,32.26,13.62,45.17,1016.18,2021.00,3438.61,3062.00,3516.24,599.88,588.93,15.94,0000 0000 0000 0000 000000
2017-06-09 09:41:00,0.00,0.08,0.00,26.43,29.77,32.27,13.68,45.23,1016.17,2021.00,3438.07,3061.98,3516.00,599.78,588.74,15.99,0000 0000 0000 0000 000000
2017-06-09 09:46:02,0.00,0.08,0.00,26.43,29.77,32.28,13.71,45.21,1016.14,2021.00,3438.00,3061.81,3516.00,600.09,588.92,16.04,0000 0000 0000 0000 000000
2017-06-09 09:51:03,0.01,0.08,0.00,26.43,29.80,32.30,13.71,45.23,1016.22,2021.00,3437.99,3061.38,3515.97,600.13,589.10,16.09,0000 0000 0000 0000 000000
2017-06-09 09:56:04,0.00,0.08,0.00,26.43,29.80,32.30,13.68,45.26,1016.41,2020.98,3437.98,3061.16,3515.94,599.62,588.73,16.14,0000 0000 0000 0000 000000
2017-06-09 10:01:06,0.01,0.08,0.00,26.44,29.82,32.32,13.74,45.33,1016.40,2020.98,3437.77,3061.02,3515.60,599.99,589.08,16.19,0000 0000 0000 0000 000000
2017-06-09 10:06:07,0.01,0.08,0.00,26.43,29.82,32.33,13.69,45.18,1016.31,2020.98,3437.29,3061.00,3515.19,599.76,588.82,16.24,0000 0000 0000 0000 000000
2017-06-09 10:11:08,0.00,0.08,0.00,26.45,29.84,32.34,13.67,45.14,1016.18,2020.98,3437.06,3061.00,3515.06,599.79,588.55,16.29,0000 0000 0000 0000 000000
2017-06-09 10:16:09,-0.00,0.08,0.00,26.44,29.85,32.36,13.71,45.17,1016.21,2020.95,3437.00,3061.00,3515.00,600.06,588.88,16.34,0000 0000 0000 0000 000000
2017-06-09 10:21:10,-0.00,0.08,0.00,26.44,29.85,32.36,13.75,45.25,1016.22,2020.92,3437.00,3061.00,3515.00,600.28,589.23,16.39,0000 0000 0000 0000 000000
2017-06-09 10:26:11,0.00,0.08,0.00,26.44,29.87,32.37,13.74,45.26,1016.18,2020.89,3436.98,3060.97,3514.99,599.82,588.76,16.44,0000 0000 0000 0000 000000
2017-06-09 10:31:12,-0.01,0.08,0.00,26.46,29.87,32.37,13.70,45.18,1016.18,2020.75,3436.87,3060.85,3514.96,599.87,588.74,16.49,0000 0000 0000 0000 000000
2017-06-09 10:36:14,0.00,0.08,0.00,26.45,29.87,32.40,13.70,45.26,1016.21,2020.44,3436.34,3060.30,3514.58,599.94,588.85,16.54,0000 0000 0000 0000 000000
2017-06-09 10:41:15,-0.01,0.08,0.00,26.47,29.90,32.38,13.72,45.13,1016.48,2020.14,3436.05,3060.03,3514.14,599.88,588.84,16.59,0000 0000 0000 0000 000000
2017-06-09 10:46:16,-0.00,0.08,0.00,26.47,29.90,32.39,13.69,45.15,1016.59,2020.10,3436.01,3060.01,3514.07,599.75,588.85,16.64,0000 0000 0000 0000 000000
2017-06-09 10:51:17,0.00,0.08,0.00,26.46,29.90,32.41,13.71,45.33,1016.60,2020.15,3436.00,3060.01,3514.02,599.69,588.88,16.69,0000 0000 0000 0000 000000
2017-06-09 10:56:18,-0.01,0.08,0.00,26.46,29.92,32.41,13.73,45.17,1016.55,2020.08,3436.00,3060.00,3514.01,600.14,589.16,16.74,0000 0000 0000 0000 000000
2017-06-09 11:01:20,-0.00,0.08,0.00,26.46,29.92,32.43,13.78,45.29,1016.56,2020.03,3435.97,3060.00,3514.00,600.06,589.20,16.79,0000 0000 0000 0000 000000
2017-06-09 11:06:21,0.00,0.08,0.00,26.46,29.92,32.43,13.69,45.15,1016.60,2020.05,3435.88,3059.99,3513.98,599.75,588.89,16.84,0000 0000 0000 0000 000000
2017-06-09 11:11:22,0.00,0.08,0.00,26.46,29.92,32.44,13.80,45.20,1016.62,2020.02,3435.50,3059.98,3513.97,600.00,589.15,16.89,0000 0000 0000 0000 000000
2017-06-09 11:16:24,0.01,0.08,0.00,26.46,29.94,32.44,13.69,45.19,1016.61,2020.01,3435.10,3059.94,3513.82,599.71,588.86,16.94,0000 0000 0000 0000 000000
2017-06-09 11:21:25,0.00,0.08,0.00,26.43,29.95,32.45,13.61,45.11,1016.61,2020.01,3435.03,3059.88,3513.64,599.85,589.13,16.99,0000 0000 0000 0000 000000
2017-06-09 11:26:26,0.01,0.08,0.00,26.43,29.95,32.45,13.79,45.24,1016.62,2020.00,3435.00,3059.45,3513.17,600.37,589.58,17.04,0000 0000 0000 0000 000000
2017-06-09 11:31:28,0.00,0.08,0.00,26.44,29.96,32.47,13.80,45.23,1016.62,2020.00,3435.00,3059.31,3513.09,600.52,589.76,17.09,0000 0000 0000 0000 000000
2017-06-09 11:36:28,0.00,0.09,0.00,26.42,29.97,32.49,13.74,45.24,1016.62,2020.00,3435.00,3059.12,3513.03,599.76,588.96,17.14,0000 0000 0000 0000 000000
2017-06-09 11:41:30,0.00,0.09,0.00,26.41,29.97,32.48,13.81,45.35,1016.62,2020.00,3435.00,3059.10,3513.01,600.14,589.45,17.19,0000 0000 0000 0000 000000
2017-06-09 11:46:31,0.00,0.09,0.00,26.42,29.97,32.49,13.80,45.27,1016.62,2020.00,3434.98,3059.06,3513.01,600.21,589.43,17.24,0000 0000 0000 0000 000000
2017-06-09 11:51:32,0.01,0.09,0.00,26.42,29.97,32.49,13.80,45.30,1016.62,2020.00,3434.63,3059.01,3513.00,600.20,589.46,17.29,0000 0000 0000 0000 000000
2017-06-09 11:56:34,0.00,0.09,0.00,26.41,29.98,32.49,13.75,45.30,1016.62,2020.00,3434.13,3059.00,3512.99,600.12,589.39,17.34,0000 0000 0000 0000 000000
2017-06-09 12:01:35,0.00,0.09,0.00,26.41,29.99,32.49,13.76,45.23,1016.62,2020.00,3434.02,3058.99,3512.97,599.78,589.17,17.39,0000 0000 0000 0000 000000
2017-06-09 12:06:36,0.00,0.09,0.00,26.41,30.00,32.50,13.69,45.26,1016.62,2020.00,3434.00,3058.98,3512.93,599.70,588.99,17.44,0000 0000 0000 0000 000000
2017-06-09 12:11:37,0.00,0.09,0.00,26.43,30.00,32.50,13.72,45.33,1016.62,2020.00,3434.00,3058.97,3512.54,600.00,589.27,17.49,0000 0000 0000 0000 000000
2017-06-09 12:16:38,0.00,0.09,0.00,26.47,30.00,32.50,13.71,45.13,1016.63,2020.00,3433.99,3058.95,3512.37,599.83,588.84,17.54,0000 0000 0000 0000 000000
2017-06-09 12:21:40,0.00,0.09,0.00,26.47,30.00,32.49,13.71,45.30,1016.63,2020.00,3433.98,3058.88,3512.08,600.09,589.21,17.59,0000 0000 0000 0000 000000
2017-06-09 12:26:41,0.00,0.09,0.00,26.47,30.00,32.50,13.70,45.30,1016.62,2020.00,3433.96,3058.81,3512.04,599.89,588.90,17.64,0000 0000 0000 0000 000000
2017-06-09 12:31:42,0.01,0.09,0.00,26.46,30.02,32.51,13.82,45.36,1016.63,2020.00,3433.82,3058.57,3512.01,600.23,589.30,17.69,0000 0000 0000 0000 000000
2017-06-09 12:36:43,0.02,0.09,0.00,26.44,30.02,32.52,13.73,45.39,1016.62,2019.99,3433.16,3058.13,3512.00,600.01,589.22,17.74,0000 0000 0000 0000 000000
2017-06-09 12:41:45,0.00,0.09,0.00,26.43,30.02,32.52,13.73,45.31,1016.63,2019.99,3433.00,3058.00,3511.98,599.89,589.11,17.79,0000 0000 0000 0000 000000
2017-06-09 12:46:46,0.00,0.09,0.00,26.42,30.02,32.52,13.67,45.31,1016.67,2019.99,3432.99,3058.00,3511.96,599.93,589.13,17.84,0000 0000 0000 0000 000000
2017-06-09 12:51:47,0.01,0.09,0.00,26.41,30.02,32.53,13.72,45.24,1016.66,2019.99,3432.79,3058.00,3511.51,599.76,589.06,17.89,0000 0000 0000 0000 000000
2017-06-09 12:56:49,0.01,0.09,0.00,26.40,30.02,32.54,13.74,45.17,1016.64,2019.99,3432.22,3057.95,3511.11,600.36,589.70,17.94,0000 0000 0000 0000 000000